Le nostre stazioni meteo in Italia

Pubblicità
Il mio iltempo24.it
Ronchi Dei Legionari, Italia (16108): Temperatura & dewpoint: 07.12.2019 22:00:00 - 13.12.2019 22:00:00 (CET)Ronchi Dei Legionari, Italia (16108): velocità del vento: 07.12.2019 22:00:00 - 13.12.2019 22:00:00 (CET)Ronchi Dei Legionari, Italia (16108): direzione del vento: 07.12.2019 22:00:00 - 13.12.2019 22:00:00 (CET)Ronchi Dei Legionari, Italia (16108): reduced air pressure: 07.12.2019 22:00:00 - 13.12.2019 22:00:00 (CET)Ronchi Dei Legionari, Italia (16108): visibility: 07.12.2019 22:00:00 - 13.12.2019 22:00:00 (CET)Ronchi Dei Legionari, Italia (16108): precipitazioni: 07.12.2019 22:00:00 - 13.12.2019 22:00:00 (CET)
Data & Tempo tt [°C] td [°C] ff [km/h] ff [kn] dd ppp [hPa] vv [km] rr [mm]
13.12.2019 22:00:00 6,0 4,7 11 6 NNO 987,9 10 0,0
13.12.2019 21:00:00 6,0 5,0 22 12 N - 8 -
13.12.2019 20:00:00 7,0 4,0 24 13 NNE - 10 -
13.12.2019 19:00:00 6,8 4,9 22 12 NE 984,5 7 -
13.12.2019 18:00:00 7,0 5,0 24 13 ENE - 6 -
13.12.2019 17:00:00 8,0 6,0 26 14 E - 5 -
13.12.2019 16:00:00 7,7 6,5 29 16 E 983,7 6 0,0
13.12.2019 15:00:00 6,0 5,0 11 6 ENE - 7 -
13.12.2019 14:00:00 4,0 4,0 13 7 NNE - 6 -
13.12.2019 13:00:00 4,0 3,4 15 8 NNE 989,1 7 -
13.12.2019 12:00:00 4,0 4,0 11 6 NNE - 6 -
13.12.2019 11:00:00 4,0 3,0 9 5 ENE - 7 -
13.12.2019 10:00:00 3,7 3,2 5 3 E 994,7 5 0,0
13.12.2019 09:00:00 3,0 3,0 8 4 NNE - 7 -
13.12.2019 08:00:00 2,0 2,0 4 2 SSE - 6 -
13.12.2019 07:00:00 2,7 2,3 4 2 SSO 996,8 10 -
13.12.2019 06:00:00 3,0 2,0 5 3 NNO - 10 -
13.12.2019 05:00:00 3,0 2,0 11 6 N - 10 -
13.12.2019 04:00:00 3,1 2,0 8 4 ONO 998,2 10 0,0
13.12.2019 03:00:00 3,0 1,0 9 5 E - 10 -
13.12.2019 02:00:00 3,0 2,0 11 6 E - 10 -
13.12.2019 01:00:00 3,2 2,6 8 4 NE 1000,1 10 -
13.12.2019 00:00:00 3,0 2,0 4 2 - - 7 -
12.12.2019 23:00:00 3,0 2,0 9 5 NE - 7 -
12.12.2019 22:00:00 3,2 2,3 8 4 NNE 1001,9 7 0,0
12.12.2019 21:00:00 3,0 2,0 9 5 NNE - 7 -
12.12.2019 20:00:00 3,0 2,0 9 5 N - 8 -
12.12.2019 19:00:00 3,0 1,9 5 3 NNE 1003,3 7 -
12.12.2019 18:00:00 4,0 2,0 13 7 NE - 6 -
12.12.2019 17:00:00 4,0 3,0 9 5 NE - 6 -
12.12.2019 16:00:00 4,2 2,3 11 6 ENE 1004,3 6 0,0
12.12.2019 15:00:00 5,0 2,0 9 5 E - 7 -
12.12.2019 14:00:00 6,0 0,0 2 1 - - 8 -
12.12.2019 13:00:00 6,2 -0,1 5 3 ONO 1004,5 10 -
12.12.2019 12:00:00 6,0 -1,0 9 5 N - 10 -
12.12.2019 11:00:00 6,0 -1,0 11 6 NNE - 10 -
12.12.2019 10:00:00 5,3 -1,2 5 3 NNO 1007,0 10 0,0
12.12.2019 09:00:00 4,0 -2,0 8 4 NNE - 10 -
12.12.2019 08:00:00 3,0 -2,0 11 6 ENE - 10 -
12.12.2019 07:00:00 2,5 -2,8 8 4 NE 1006,3 10 -
12.12.2019 06:00:00 3,0 -3,0 9 5 ENE - 10 -
12.12.2019 05:00:00 1,0 -4,0 4 2 - - 10 -
12.12.2019 04:00:00 1,1 -3,5 4 2 - 1006,1 10 0,0
12.12.2019 03:00:00 1,0 -4,0 2 1 - - 10 -
12.12.2019 02:00:00 -2,0 -4,0 2 1 - - 10 -
12.12.2019 01:00:00 -2,5 -4,5 4 2 - 1007,9 10 -
12.12.2019 00:00:00 -2,0 -4,0 8 4 NO - 10 -
11.12.2019 23:00:00 1,0 -6,0 5 3 NNE - 10 -
11.12.2019 22:00:00 0,7 -6,0 5 3 NO 1009,9 10 0,0
11.12.2019 21:00:00 2,0 -6,0 11 6 N - 10 -
11.12.2019 20:00:00 -2,0 -4,0 5 3 NO - 10 -
11.12.2019 19:00:00 0,6 -4,4 4 2 - 1011,5 10 -
11.12.2019 18:00:00 1,0 -5,0 4 2 N - 10 -
11.12.2019 17:00:00 5,0 -7,0 5 3 N - 10 -
11.12.2019 16:00:00 7,4 -7,2 5 3 NNO 1013,0 10 0,0
11.12.2019 15:00:00 9,0 -8,0 8 4 NNO - 10 -
11.12.2019 14:00:00 9,0 -9,0 8 4 N - 10 -
11.12.2019 13:00:00 8,7 -7,7 11 6 N 1015,7 10 -
11.12.2019 12:00:00 8,0 -6,0 9 5 N - 10 -
11.12.2019 11:00:00 7,0 -6,0 8 4 N - 10 -
11.12.2019 10:00:00 5,4 -4,3 5 3 NNO 1018,9 10 0,0
11.12.2019 09:00:00 2,0 -6,0 4 2 - - 10 -
11.12.2019 08:00:00 -1,0 -6,0 9 5 N - 10 -
11.12.2019 07:00:00 -3,9 -5,4 9 5 NNO 1020,3 10 -
11.12.2019 06:00:00 -3,0 -4,0 4 2 - - 10 -
11.12.2019 05:00:00 -2,0 -4,0 4 2 - - 10 -
11.12.2019 04:00:00 -2,4 -4,4 4 2 NNE 1021,0 10 0,0
11.12.2019 03:00:00 -3,0 -4,0 4 2 - - 10 -
11.12.2019 02:00:00 -2,0 -3,0 5 3 ONO - 10 -
11.12.2019 01:00:00 -0,8 -4,1 2 1 - 1022,2 10 -
11.12.2019 00:00:00 0,0 -4,0 4 2 - - 10 -
10.12.2019 23:00:00 3,0 -4,0 4 2 - - 10 -
10.12.2019 22:00:00 4,3 -4,3 11 6 E 1023,1 10 0,0
10.12.2019 21:00:00 5,0 -3,0 4 2 - - 10 -
10.12.2019 20:00:00 7,0 -3,0 11 6 ENE - 10 -
10.12.2019 19:00:00 7,3 -3,5 8 4 ENE 1021,7 10 -
10.12.2019 18:00:00 7,0 -1,0 4 2 - - 10 -
10.12.2019 17:00:00 8,0 1,0 15 8 E - 10 -
10.12.2019 16:00:00 11,0 4,9 5 3 O 1019,0 10 0,0
10.12.2019 15:00:00 13,0 3,0 5 3 ONO - 10 -
10.12.2019 14:00:00 13,0 3,0 8 4 ONO - 10 -
10.12.2019 13:00:00 12,2 3,8 9 5 NNO 1017,7 10 -
10.12.2019 12:00:00 11,0 5,0 8 4 NNO - 10 -
10.12.2019 11:00:00 10,0 6,0 5 3 NO - 10 -
10.12.2019 10:00:00 7,4 5,2 2 1 - 1016,8 10 0,0
10.12.2019 09:00:00 3,0 3,0 4 2 - - 10 -
10.12.2019 08:00:00 2,0 2,0 8 4 NO - 10 -
10.12.2019 07:00:00 2,9 2,9 8 4 NNO 1013,7 10 -
10.12.2019 06:00:00 2,0 2,0 9 5 N - 10 -
10.12.2019 05:00:00 2,0 2,0 5 3 N - 10 -
10.12.2019 04:00:00 2,6 2,6 5 3 ENE 1011,5 5 0,0
10.12.2019 03:00:00 3,0 3,0 4 2 - - 0,5 -
10.12.2019 02:00:00 5,0 5,0 11 6 N - 4,0 -
10.12.2019 01:00:00 4,0 4,0 4 2 - 1009,6 0,1 -
10.12.2019 00:00:00 6,0 6,0 5 3 N - 1,0 -
09.12.2019 23:00:00 7,0 7,0 5 3 O - 7 -
09.12.2019 22:00:00 7,6 7,1 4 2 NO 1008,3 7 0,0
09.12.2019 21:00:00 7,0 7,0 5 3 NO - 6 -
09.12.2019 20:00:00 8,0 8,0 5 3 ONO - 6 -
09.12.2019 19:00:00 7,9 7,9 4 2 SO 1007,0 3,0 -
09.12.2019 18:00:00 8,0 8,0 2 1 - - 4,0 -
09.12.2019 17:00:00 9,0 8,0 5 3 NNO - 4,0 -
09.12.2019 16:00:00 9,0 8,4 4 2 - 1005,9 4,0 0,0
09.12.2019 15:00:00 9,0 9,0 11 6 NNO - 2,0 -
09.12.2019 14:00:00 9,0 9,0 9 5 N - 3,0 -
09.12.2019 13:00:00 9,2 8,5 9 5 N 1007,0 4,0 -
09.12.2019 12:00:00 9,0 8,0 11 6 NNE - 4,0 -
09.12.2019 11:00:00 9,0 9,0 9 5 N - 2,0 -
09.12.2019 10:00:00 8,3 8,1 5 3 N 1009,5 4,0 0,0
09.12.2019 09:00:00 8,0 8,0 4 2 - - 4,0 -
09.12.2019 08:00:00 7,0 7,0 2 1 - - 3,0 -
09.12.2019 07:00:00 7,3 7,1 4 2 NNE 1010,3 5 -
09.12.2019 06:00:00 7,0 7,0 4 2 N - 2,8 -
09.12.2019 05:00:00 8,0 7,0 2 1 - - 3,7 -
09.12.2019 04:00:00 7,7 6,9 2 1 - 1012,1 4,5 0,0
09.12.2019 03:00:00 8,0 7,0 2 1 NE - 5 -
09.12.2019 02:00:00 8,0 7,0 4 2 NE - 5 -
09.12.2019 01:00:00 7,9 7,1 4 2 N 1014,3 5 -
09.12.2019 00:00:00 8,0 7,0 5 3 NNO - 5 -
08.12.2019 23:00:00 8,0 7,0 5 3 N - 5 -
08.12.2019 22:00:00 7,9 6,7 5 3 N 1016,8 5 0,0
08.12.2019 21:00:00 8,0 7,0 5 3 N - 5 -
08.12.2019 20:00:00 8,0 7,0 4 2 ENE - 6 -
08.12.2019 19:00:00 7,6 6,4 4 2 NNE 1018,4 5 -
08.12.2019 18:00:00 8,0 6,0 4 2 E - 6 -
08.12.2019 17:00:00 8,0 6,0 4 2 S - 5 -
08.12.2019 16:00:00 9,0 6,5 0 0 N 1018,8 5 0,0
08.12.2019 15:00:00 10,0 7,0 5 3 O - 7 -
08.12.2019 14:00:00 10,0 7,0 2 1 - - 8 -
08.12.2019 13:00:00 10,2 7,4 5 3 O 1020,0 7 -
08.12.2019 12:00:00 10,0 8,0 5 3 O - 7 -
08.12.2019 11:00:00 9,0 7,0 5 3 OSO - 6 -
08.12.2019 10:00:00 7,5 7,3 2 1 - 1021,4 8 0,0
08.12.2019 09:00:00 4,0 4,0 2 1 - - 7 -
08.12.2019 08:00:00 4,0 4,0 2 1 - - 7 -
08.12.2019 07:00:00 2,9 2,9 5 3 - 1020,4 5 -
08.12.2019 06:00:00 2,0 2,0 2 1 N - 0,5 -
08.12.2019 05:00:00 3,0 3,0 5 3 ENE - 3,9 -
08.12.2019 04:00:00 3,0 3,0 4 2 NNE 1021,0 2,3 0,0
08.12.2019 03:00:00 4,0 4,0 5 3 N - 3,2 -
08.12.2019 02:00:00 4,0 4,0 4 2 NO - 1,9 -
08.12.2019 01:00:00 4,3 4,1 4 2 NNO 1020,9 4,5 -
08.12.2019 00:00:00 4,0 4,0 4 2 N - 7 -
07.12.2019 23:00:00 5,0 5,0 5 3 N - 7 -
07.12.2019 22:00:00 5,1 4,5 2 1 - 1020,8 8 0,0

tt = Temperatura
td = dewpoint
ff = velocità del vento
dd = direzione del vento
ppp = reduced air pressure
vv = visibility
rr = precipitazioni

Stazioni seguenti

WeatherPro
AMSI
MeteoEarth